sat.trackr.live / text

‹ back to catalog

LEMUR-2-MONSON

NORAD 42839 · 2017-042Q

PAYLOAD ACTIVE UNKNOWN

§ Identity

Operator
Country
US
Launch date
2017-07-14
Launch site
TYMSC
Launch vehicle
Mass (kg)
RCS (m²)

Purposes: earth_obs

External: N2YO · Heavens-Above · Gunter

§ Orbital elements

Epoch: 2026-09-19T23:24:26.134272Z

Period
94.09 min
Inclination
97.4126°
Eccentricity
0.0006730
Mean motion
15.30405555 rev/d
Perigee alt
470.0 km
Apogee alt
479.2 km
Semi-major
6,852.7 km
B*
4.3477e-4
RAAN
83.2011°
Arg perigee
28.2997°
Mean anomaly
331.8608°
Rev number
50,265

§ Raw data

LEMUR-2-MONSON1 42839U 17042Q   26262.97530248  .00012724  00000+0  43477-3 0  99992 42839  97.4126  83.2011 0006730  28.2997 331.8608 15.30405555502655

JSON: /api/v1/satellites/42839 · /tle

For live sub-satellite position, see the globe view (requires WebGL).

§ Visibility from observer

Set your observer location to see the next 7 days of passes ≥ 10°. The values pass through the URL so the page stays shareable.

No JS? Fill the form by hand. The geolocation button needs JavaScript.